[[{"header":{"parameterUnit":"m.s-1","parameterCategory":1,"la1":30.2991,"la2":30.254,"lo1":-89.0895,"lo2":-89.0444,"dy":0.0017,"dx":0.0017,"nx":28,"ny":28,"refTime":"2025-11-18T09:00:00:Z","depth":0,"parameterNumber":2,"parameterNumberName":"U-component_of_WINDS"},"data":[0,0,0,0,0,0,0,0,0,0,0,0,0,0,0,0,0,0,0,0,0,0,0,0,0,0,0,0,0,0,0,0,0,0,0,0,0,0,0,0,0,0,0,0,0,0,0,0,0,0,0,0,0,0,0,0,0,0,-1.7191,-1.7191,0,-1.7177,-1.7177,-1.7177,-1.7147,-1.7147,-1.7146,-1.7146,-1.713,-1.713,-1.713,0,0,0,0,0,0,0,0,0,0,0,0,0,-1.719,-1.719,-1.7191,-1.7191,-1.7191,-1.7177,-1.7177,-1.7177,-1.7148,-1.7147,-1.7146,-1.7145,-1.713,-1.713,-1.713,0,0,0,0,0,0,0,0,0,0,0,0,0,-1.7185,-1.7191,-1.7191,-1.7175,-1.7173,-1.7177,-1.7177,-1.7177,-1.7148,-1.7147,-1.7146,-1.7145,-1.713,-1.713,-1.713,-1.7149,0,0,-1.7131,-1.7131,0,0,0,0,0,0,0,0,-1.7185,-1.7185,-1.7177,-1.7176,-1.7174,-1.7163,-1.7171,-1.7167,-1.7148,-1.7157,-1.7146,-1.7145,-1.7142,-1.7141,-1.714,-1.7148,-1.7148,-1.7131,-1.7131,-1.7131,-1.7131,0,0,0,0,0,0,0,-1.7186,-1.7185,-1.7186,-1.7177,-1.7175,-1.7167,-1.7165,-1.717,-1.7155,-1.7156,-1.7154,-1.7153,-1.7141,-1.714,-1.714,-1.7147,-1.7131,-1.7131,-1.7131,-1.7131,-1.7167,-1.7168,0,0,0,0,0,0,-1.7189,-1.7186,-1.7186,-1.7185,-1.7178,-1.7168,-1.7166,-1.7168,-1.7154,-1.7152,-1.7154,-1.7152,-1.714,-1.7139,-1.7139,-1.7158,-1.7131,-1.7131,-1.7131,-1.7166,-1.7167,-1.7168,0,0,0,0,0,0,-1.7189,-1.7189,-1.7187,-1.7185,-1.7184,-1.7169,-1.7171,-1.7168,-1.7167,-1.7152,-1.7149,-1.7156,-1.7139,-1.7139,-1.7146,-1.7157,-1.7131,-1.7132,-1.7165,-1.7167,-1.7168,-1.7197,0,0,0,0,0,0,-1.7189,-1.7189,-1.7197,-1.7185,-1.7184,-1.7195,-1.7172,-1.7168,-1.7168,-1.7165,-1.7154,-1.7151,-1.7139,-1.7146,-1.7146,-1.7157,-1.7132,-1.7164,-1.7166,-1.7167,-1.7195,-1.7199,-1.7203,0,0,0,0,0,-1.7189,-1.7206,-1.7198,-1.7198,-1.7194,-1.7196,-1.7195,-1.7181,-1.7169,-1.7176,-1.7166,-1.7152,-1.7156,-1.7147,-1.7147,-1.7158,-1.7163,-1.7165,-1.7167,-1.7194,-1.7199,-1.7203,0,0,0,0,0,0,-1.722,-1.7205,-1.7195,-1.7209,-1.7204,-1.7191,-1.72,-1.7187,-1.7185,-1.7182,-1.7164,-1.7162,-1.7171,-1.7165,-1.7156,-1.7174,-1.7157,-1.7159,-1.7177,-1.7182,-1.7186,-1.7186,-1.7132,0,0,0,0,0,-1.7229,-1.7232,-1.7218,-1.7232,-1.723,-1.7215,-1.7216,-1.7205,-1.7199,-1.7196,-1.7187,-1.7181,-1.7181,-1.7181,-1.718,-1.7194,-1.719,-1.7201,-1.7205,-1.7209,-1.721,-1.7214,-1.7219,-1.7174,-1.7174,-1.7174,0,0,-1.7246,-1.7238,-1.7242,-1.7238,-1.7233,-1.7236,-1.7214,-1.7219,-1.722,-1.7197,-1.7203,-1.7196,-1.7188,-1.7198,-1.7202,-1.7193,-1.7221,-1.7211,-1.7214,-1.7213,-1.7217,-1.7221,-1.7225,-1.7176,-1.7175,-1.7175,0,0,-1.7279,-1.7275,-1.7284,-1.7279,-1.7271,-1.7261,-1.7263,-1.7252,-1.7246,-1.7252,-1.7234,-1.7235,-1.7236,-1.723,-1.7227,-1.7255,-1.7241,-1.7256,-1.7275,-1.728,-1.7283,-1.7286,-1.7294,-1.7298,-1.7258,-1.7258,-1.7258,0,-1.7302,-1.7307,-1.7291,-1.7296,-1.7294,-1.7273,-1.7282,-1.7277,-1.727,-1.7268,-1.7259,-1.7257,-1.7251,-1.7258,-1.7264,-1.7264,-1.7264,-1.7257,-1.7284,-1.7287,-1.729,-1.7297,-1.73,-1.7259,-1.7259,-1.7259,-1.7259,0,-1.7334,-1.7337,-1.7346,-1.7338,-1.7337,-1.7344,-1.7328,-1.7329,-1.7318,-1.7308,-1.7313,-1.7304,-1.7299,-1.73,-1.729,-1.7305,-1.73,-1.7288,-1.7271,-1.7296,-1.7302,-1.7305,-1.7262,-1.7261,-1.7261,-1.726,0,0,-1.7387,-1.7369,-1.7373,-1.7368,-1.7357,-1.7358,-1.7363,-1.7359,-1.7359,-1.7354,-1.7356,-1.7356,-1.7344,-1.7341,-1.7329,-1.7333,-1.7353,-1.732,-1.7319,-1.7325,-1.7367,-1.7376,-1.7379,-1.7344,-1.7345,-1.7345,-1.7367,0,-1.7416,-1.7425,-1.741,-1.7421,-1.7422,-1.7401,-1.7405,-1.7398,-1.7389,-1.7387,-1.7377,-1.7376,-1.7361,-1.7359,-1.7362,-1.735,-1.7361,-1.7349,-1.7345,-1.7345,-1.7346,-1.7383,-1.7393,-1.7414,-1.737,-1.737,-1.7371,0,-1.7452,-1.7448,-1.746,-1.7445,-1.7445,-1.7449,-1.7443,-1.7443,-1.7433,-1.7426,-1.7421,-1.7407,-1.7409,-1.7393,-1.7395,-1.7386,-1.7384,-1.7378,-1.7378,-1.7376,-1.7359,-1.7381,-1.7421,-1.7423,-1.7375,-1.7375,-1.7374,0,-1.7488,-1.7485,-1.7491,-1.7487,-1.7472,-1.7475,-1.7468,-1.7458,-1.7455,-1.7449,-1.7447,-1.7442,-1.7438,-1.7434,-1.7418,-1.7408,-1.742,-1.7404,-1.7413,-1.7413,-1.7416,-1.7416,-1.7454,-1.7416,-1.7416,-1.7416,-1.7416,0,-1.7521,-1.7529,-1.7506,-1.7509,-1.7516,-1.7498,-1.7505,-1.7496,-1.7487,-1.7487,-1.7468,-1.7469,-1.7448,-1.7446,-1.7433,-1.7435,-1.7434,-1.7427,-1.7423,-1.7428,-1.7428,-1.7425,-1.7423,-1.7417,-1.7417,-1.7417,-1.7417,0,-1.7562,-1.7547,-1.7552,-1.7536,-1.7532,-1.7537,-1.7523,-1.7525,-1.7513,-1.7514,-1.7513,-1.7495,-1.7491,-1.7474,-1.7467,-1.7458,-1.7463,-1.7457,-1.7466,-1.7464,-1.7473,-1.7472,-1.751,-1.7513,-1.7475,-1.7475,-1.7476,0,-1.7584,-1.7589,-1.7573,-1.7572,-1.7566,-1.7565,-1.7562,-1.7543,-1.7541,-1.7529,-1.7532,-1.7526,-1.7521,-1.7515,-1.75,-1.7493,-1.7486,-1.75,-1.7485,-1.7488,-1.7484,-1.7483,-1.7483,-1.7503,-1.7503,-1.7504,-1.7504,0,-1.7624,-1.7616,-1.7613,-1.7606,-1.7603,-1.7597,-1.759,-1.759,-1.7569,-1.7567,-1.7563,-1.7558,-1.7549,-1.7543,-1.7534,-1.7525,-1.7511,-1.7509,-1.751,-1.7515,-1.7519,-1.7515,-1.7474,-1.7508,-1.7508,-1.7507,-1.7507,-1.7507,-1.7655,-1.7657,-1.7646,-1.7642,-1.7634,-1.7628,-1.7628,-1.7616,-1.7612,-1.7604,-1.7593,-1.7589,-1.7577,-1.7562,-1.7555,-1.7551,-1.7543,-1.7546,-1.7546,-1.7547,-1.7548,-1.7521,-1.7549,-1.7549,-1.7549,-1.7549,-1.7549,0,-1.7692,-1.7683,-1.768,-1.767,-1.7667,-1.7653,-1.7644,-1.7642,-1.7639,-1.7629,-1.7623,-1.7617,-1.761,-1.7595,-1.7586,-1.7586,-1.7579,-1.7584,-1.7583,-1.7581,-1.7557,-1.7555,-1.759,-1.759,-1.759,-1.759,-1.759,-1.759,-1.7711,-1.7714,-1.7704,-1.7702,-1.7693,-1.7689,-1.7685,-1.7677,-1.7669,-1.7663,-1.7657,-1.7647,-1.7634,-1.7624,-1.7617,-1.7613,-1.7609,-1.7617,-1.761,-1.7587,-1.7583,-1.7579,-1.7578,-1.7617,-1.7617,-1.7635,-1.7635,-1.7635]},{"header":{"parameterUnit":"m.s-1","parameterCategory":1,"la1":30.2991,"la2":30.254,"lo1":-89.0895,"lo2":-89.0444,"dy":0.0017,"dx":0.0017,"nx":28,"ny":28,"refTime":"2025-11-18T09:00:00:Z","depth":0,"parameterNumber":3,"parameterNumberName":"V-component_of_WINDS"},"data":[0,0,0,0,0,0,0,0,0,0,0,0,0,0,0,0,0,0,0,0,0,0,0,0,0,0,0,0,0,0,0,0,0,0,0,0,0,0,0,0,0,0,0,0,0,0,0,0,0,0,0,0,0,0,0,0,0,0,-0.2859,-0.2858,0,-0.2799,-0.2798,-0.2798,-0.2774,-0.2774,-0.2774,-0.2774,-0.2707,-0.2706,-0.2704,0,0,0,0,0,0,0,0,0,0,0,0,0,-0.2944,-0.2943,-0.2859,-0.2858,-0.2857,-0.2799,-0.2798,-0.2798,-0.2774,-0.2774,-0.2774,-0.2774,-0.2708,-0.2706,-0.2703,0,0,0,0,0,0,0,0,0,0,0,0,0,-0.2898,-0.2942,-0.2859,-0.2838,-0.2836,-0.2799,-0.2798,-0.2797,-0.2774,-0.2774,-0.2774,-0.2775,-0.2709,-0.2706,-0.2703,-0.2681,0,0,-0.2694,-0.2693,0,0,0,0,0,0,0,0,-0.29,-0.2895,-0.2842,-0.284,-0.2837,-0.2794,-0.2804,-0.2758,-0.2774,-0.2797,-0.2774,-0.2775,-0.2736,-0.2731,-0.2719,-0.2677,-0.2675,-0.2694,-0.2692,-0.2691,-0.269,0,0,0,0,0,0,0,-0.2904,-0.2897,-0.2835,-0.2841,-0.2838,-0.283,-0.2824,-0.2795,-0.2766,-0.2795,-0.2793,-0.2787,-0.2734,-0.2722,-0.2717,-0.2674,-0.2694,-0.2692,-0.269,-0.2689,-0.2607,-0.2606,0,0,0,0,0,0,-0.2911,-0.29,-0.2837,-0.2833,-0.287,-0.2828,-0.2821,-0.2808,-0.2766,-0.276,-0.2787,-0.2786,-0.2726,-0.272,-0.2715,-0.2683,-0.2691,-0.2688,-0.2687,-0.2607,-0.2607,-0.2606,0,0,0,0,0,0,-0.2913,-0.2906,-0.2839,-0.2866,-0.2857,-0.2826,-0.2811,-0.2806,-0.2794,-0.276,-0.2754,-0.278,-0.2726,-0.2719,-0.2689,-0.2681,-0.2687,-0.2684,-0.2608,-0.2607,-0.2607,-0.2622,0,0,0,0,0,0,-0.2916,-0.2907,-0.29,-0.2866,-0.2856,-0.2817,-0.2811,-0.2805,-0.279,-0.2788,-0.2752,-0.2746,-0.2726,-0.2693,-0.2686,-0.2677,-0.2682,-0.2608,-0.2607,-0.2607,-0.2622,-0.2622,-0.2622,0,0,0,0,0,-0.2919,-0.2906,-0.29,-0.2892,-0.2847,-0.2817,-0.281,-0.279,-0.2789,-0.278,-0.2758,-0.2747,-0.2683,-0.2691,-0.2682,-0.2672,-0.2609,-0.2608,-0.2607,-0.2622,-0.2622,-0.2622,0,0,0,0,0,0,-0.2938,-0.2901,-0.2894,-0.287,-0.2847,-0.2813,-0.2802,-0.2791,-0.2766,-0.2765,-0.2739,-0.273,-0.2702,-0.2684,-0.2693,-0.2646,-0.2645,-0.2642,-0.2659,-0.2659,-0.2659,-0.2663,-0.268,0,0,0,0,0,-0.294,-0.2921,-0.2889,-0.287,-0.2859,-0.2832,-0.2819,-0.2805,-0.2779,-0.2768,-0.2744,-0.2717,-0.269,-0.2674,-0.2648,-0.2619,-0.2609,-0.2608,-0.2608,-0.2608,-0.2606,-0.2586,-0.2584,-0.2603,-0.2603,-0.2603,0,0,-0.2942,-0.292,-0.2909,-0.2874,-0.2854,-0.2832,-0.2824,-0.2802,-0.2785,-0.2764,-0.2735,-0.2715,-0.2683,-0.2654,-0.2639,-0.2638,-0.2598,-0.2607,-0.2607,-0.2604,-0.2585,-0.2583,-0.2582,-0.2602,-0.2603,-0.2603,0,0,-0.2936,-0.2919,-0.2901,-0.2881,-0.2852,-0.2834,-0.2829,-0.2796,-0.2783,-0.2754,-0.2737,-0.2714,-0.267,-0.2647,-0.263,-0.2613,-0.26,-0.2605,-0.2604,-0.2585,-0.2584,-0.2582,-0.2574,-0.2572,-0.2603,-0.2603,-0.2603,0,-0.2943,-0.2912,-0.2892,-0.2871,-0.2854,-0.2836,-0.2815,-0.2797,-0.2759,-0.2747,-0.2746,-0.2689,-0.2666,-0.263,-0.2625,-0.2613,-0.2604,-0.2609,-0.2586,-0.2584,-0.2583,-0.2574,-0.2571,-0.2603,-0.2603,-0.2603,-0.2603,0,-0.2921,-0.2899,-0.2887,-0.2854,-0.2836,-0.2815,-0.2789,-0.2773,-0.276,-0.2741,-0.2709,-0.2681,-0.2648,-0.2638,-0.2625,-0.2598,-0.2598,-0.2592,-0.259,-0.2582,-0.2573,-0.257,-0.2604,-0.2604,-0.2604,-0.2604,0,0,-0.2926,-0.2881,-0.2877,-0.286,-0.2825,-0.2807,-0.2783,-0.2753,-0.2738,-0.2712,-0.269,-0.2652,-0.2646,-0.2626,-0.2609,-0.2593,-0.2578,-0.2589,-0.2587,-0.2586,-0.2544,-0.2548,-0.2545,-0.257,-0.2569,-0.2569,-0.2546,0,-0.2914,-0.2875,-0.2855,-0.2823,-0.2801,-0.2782,-0.2761,-0.2735,-0.2716,-0.2693,-0.267,-0.2643,-0.2638,-0.2626,-0.2609,-0.2584,-0.2569,-0.2585,-0.2546,-0.2545,-0.2554,-0.2541,-0.2546,-0.2526,-0.2543,-0.2542,-0.2542,0,-0.2896,-0.2872,-0.2838,-0.2804,-0.2793,-0.2776,-0.2744,-0.2723,-0.2692,-0.2679,-0.2656,-0.264,-0.2611,-0.2611,-0.257,-0.2581,-0.2563,-0.2548,-0.2547,-0.2541,-0.2543,-0.2534,-0.2519,-0.2516,-0.2537,-0.2537,-0.2538,0,-0.2902,-0.286,-0.2834,-0.282,-0.278,-0.2767,-0.2749,-0.2719,-0.2701,-0.2673,-0.266,-0.2628,-0.261,-0.2584,-0.2558,-0.2561,-0.2518,-0.2516,-0.2503,-0.2504,-0.2495,-0.2496,-0.2476,-0.2486,-0.2486,-0.2486,-0.2486,0,-0.2891,-0.287,-0.2836,-0.282,-0.2795,-0.277,-0.2745,-0.2726,-0.2699,-0.2676,-0.2656,-0.2635,-0.2602,-0.2575,-0.2554,-0.2521,-0.2514,-0.25,-0.2494,-0.2501,-0.2503,-0.2489,-0.2489,-0.2485,-0.2485,-0.2485,-0.2486,0,-0.2893,-0.2869,-0.2839,-0.2803,-0.2793,-0.2776,-0.2744,-0.2726,-0.2705,-0.2676,-0.2668,-0.2634,-0.2601,-0.2573,-0.2529,-0.2515,-0.248,-0.2474,-0.2491,-0.2488,-0.2476,-0.2477,-0.2446,-0.2439,-0.2455,-0.2455,-0.2455,0,-0.2887,-0.2871,-0.2833,-0.2817,-0.28,-0.2775,-0.2756,-0.273,-0.2711,-0.2674,-0.2659,-0.2625,-0.2597,-0.2544,-0.2514,-0.248,-0.2472,-0.2463,-0.2466,-0.2473,-0.2469,-0.247,-0.2467,-0.2463,-0.2463,-0.2463,-0.2463,0,-0.2878,-0.2867,-0.2842,-0.2813,-0.2791,-0.2766,-0.274,-0.2727,-0.2696,-0.2675,-0.2642,-0.262,-0.2575,-0.254,-0.2502,-0.248,-0.2465,-0.2462,-0.2457,-0.2463,-0.2473,-0.2465,-0.2489,-0.2463,-0.2463,-0.2463,-0.2463,-0.2463,-0.2875,-0.2859,-0.283,-0.2802,-0.2779,-0.2755,-0.2735,-0.2712,-0.2685,-0.2648,-0.2633,-0.2599,-0.2565,-0.2512,-0.249,-0.246,-0.2458,-0.2451,-0.2449,-0.2447,-0.2447,-0.2478,-0.2453,-0.2453,-0.2453,-0.2453,-0.2453,0,-0.2864,-0.2844,-0.2819,-0.2783,-0.276,-0.275,-0.272,-0.27,-0.2671,-0.2642,-0.2614,-0.2574,-0.254,-0.2506,-0.2469,-0.2452,-0.2443,-0.2442,-0.2443,-0.2437,-0.2453,-0.246,-0.245,-0.245,-0.245,-0.245,-0.245,-0.245,-0.2856,-0.2828,-0.2812,-0.2771,-0.2749,-0.2717,-0.2701,-0.2676,-0.2653,-0.261,-0.2582,-0.2561,-0.2529,-0.2489,-0.2455,-0.2446,-0.2432,-0.2433,-0.2421,-0.2436,-0.2437,-0.2437,-0.2444,-0.243,-0.243,-0.2408,-0.2408,-0.2408]}]]